When you browse on this site, cookies collect data to enhance your experience and personalize the content and advertising you see.
Visit our Privacy Policy to learn more. By continuing to use the site, you agree to this use of cookies and data.
  • In Spain
  • List of Countries
  • For 7 days
  • Water Temperature
  • Weather Map
  • Weather Widgets
  • user-avatar
    Login

    Hourly Weather Kabwe

    Today, 25 February, Tuesday

    Time Temperature Precipitation Wind Pressure Humidity
    00:00 +20°C° 0 mm 1 mps 662 mmHg 98%
    01:00 +20°C° 0 mm 1 mps 661 mmHg 98%
    02:00 +20°C° 0 mm 1 mps 661 mmHg 98%
    03:00 +19°C° 0.1 mm 2 mps 661 mmHg 98%
    04:00 +20°C° 0.1 mm 2 mps 661 mmHg 97%
    05:00 +20°C° 0.1 mm 3 mps 661 mmHg 97%
    06:00 +20°C° 0 mm 3 mps 661 mmHg 95%
    07:00 +20°C° 0 mm 3 mps 662 mmHg 94%
    08:00 +20°C° 0 mm 4 mps 662 mmHg 93%
    09:00 +21°C° 0 mm 3 mps 662 mmHg 90%
    10:00 +22°C° 0 mm 3 mps 662 mmHg 86%
    11:00 +24°C° 0 mm 3 mps 662 mmHg 83%
    12:00 +25°C° 0.4 mm 3 mps 662 mmHg 81%
    13:00 +25°C° 0.4 mm 3 mps 661 mmHg 80%
    14:00 +26°C° 0.4 mm 3 mps 661 mmHg 79%
    15:00 +26°C° 0.5 mm 3 mps 660 mmHg 81%
    16:00 +25°C° 0.5 mm 3 mps 660 mmHg 84%
    17:00 +24°C° 0.5 mm 3 mps 659 mmHg 86%
    18:00 +22°C° 0 mm 3 mps 660 mmHg 89%
    19:00 +21°C° 0 mm 3 mps 660 mmHg 93%
    20:00 +20°C° 0 mm 2 mps 660 mmHg 96%
    21:00 +20°C° 0 mm 2 mps 660 mmHg 97%
    22:00 +19°C° 0 mm 2 mps 661 mmHg 97%
    23:00 +19°C° 0 mm 2 mps 661 mmHg 98%

    Tomorrow, 26 February, Wednesday

    Time Temperature Precipitation Wind Pressure Humidity
    00:00 +19°C° 0 mm 2 mps 661 mmHg 98%
    01:00 +19°C° 0 mm 2 mps 660 mmHg 97%
    02:00 +19°C° 0 mm 2 mps 660 mmHg 97%
    03:00 +19°C° 0 mm 2 mps 660 mmHg 96%
    04:00 +19°C° 0 mm 2 mps 660 mmHg 95%
    05:00 +19°C° 0 mm 2 mps 660 mmHg 94%
    06:00 +20°C° 0 mm 3 mps 661 mmHg 92%
    07:00 +20°C° 0 mm 3 mps 661 mmHg 89%
    08:00 +20°C° 0 mm 3 mps 662 mmHg 87%
    09:00 +21°C° 0.1 mm 3 mps 662 mmHg 84%
    10:00 +22°C° 0.1 mm 3 mps 662 mmHg 81%
    11:00 +24°C° 0.1 mm 3 mps 662 mmHg 78%
    12:00 +25°C° 0.1 mm 3 mps 661 mmHg 76%
    13:00 +26°C° 0.1 mm 3 mps 661 mmHg 73%
    14:00 +26°C° 0.1 mm 3 mps 660 mmHg 71%
    15:00 +26°C° 0.2 mm 3 mps 660 mmHg 74%
    16:00 +26°C° 0.2 mm 3 mps 659 mmHg 77%
    17:00 +25°C° 0.2 mm 3 mps 659 mmHg 80%
    18:00 +24°C° 0 mm 3 mps 659 mmHg 85%
    19:00 +21°C° 0 mm 3 mps 659 mmHg 90%
    20:00 +20°C° 0 mm 2 mps 660 mmHg 95%
    21:00 +19°C° 0 mm 2 mps 660 mmHg 96%
    22:00 +19°C° 0 mm 2 mps 660 mmHg 96%
    23:00 +18°C° 0 mm 2 mps 661 mmHg 97%

    Day after tomorrow, 27 February, Thursday

    Time Temperature Precipitation Wind Pressure Humidity
    00:00 +18°C° 0 mm 2 mps 660 mmHg 97%
    01:00 +18°C° 0 mm 2 mps 660 mmHg 98%
    02:00 +18°C° 0 mm 2 mps 660 mmHg 98%
    03:00 +18°C° 0 mm 2 mps 660 mmHg 98%
    04:00 +18°C° 0 mm 2 mps 660 mmHg 98%
    05:00 +18°C° 0 mm 2 mps 660 mmHg 98%
    06:00 +18°C° 0 mm 2 mps 660 mmHg 95%
    07:00 +19°C° 0 mm 3 mps 661 mmHg 93%
    08:00 +20°C° 0 mm 3 mps 661 mmHg 90%
    09:00 +21°C° 0 mm 2 mps 662 mmHg 85%
    10:00 +24°C° 0 mm 2 mps 662 mmHg 80%
    11:00 +25°C° 0 mm 2 mps 662 mmHg 75%
    12:00 +26°C° 0.7 mm 1 mps 662 mmHg 76%
    13:00 +26°C° 0.7 mm 1 mps 661 mmHg 77%
    14:00 +27°C° 0.7 mm 1 mps 660 mmHg 78%
    15:00 +26°C° 1.4 mm 1 mps 660 mmHg 81%
    16:00 +26°C° 1.4 mm 1 mps 659 mmHg 85%
    17:00 +25°C° 1.4 mm 1 mps 659 mmHg 89%
    18:00 +24°C° 0.2 mm 1 mps 659 mmHg 92%
    19:00 +23°C° 0.2 mm 2 mps 660 mmHg 95%
    20:00 +21°C° 0.2 mm 2 mps 660 mmHg 97%
    21:00 +21°C° 0.1 mm 1 mps 660 mmHg 97%
    22:00 +21°C° 0.1 mm 1 mps 660 mmHg 97%
    23:00 +21°C° 0.1 mm 1 mps 661 mmHg 97%

    28 February, Friday

    Time Temperature Precipitation Wind Pressure Humidity
    00:00 +20°C° 0 mm 1 mps 660 mmHg 97%
    01:00 +20°C° 0 mm 1 mps 660 mmHg 97%
    02:00 +20°C° 0 mm 1 mps 660 mmHg 98%
    03:00 +20°C° 0.2 mm 1 mps 660 mmHg 98%
    04:00 +19°C° 0.2 mm 1 mps 660 mmHg 98%
    05:00 +19°C° 0.2 mm 1 mps 660 mmHg 98%
    06:00 +19°C° 0 mm 2 mps 661 mmHg 96%
    07:00 +20°C° 0 mm 2 mps 661 mmHg 94%
    08:00 +21°C° 0 mm 3 mps 662 mmHg 93%
    09:00 +22°C° 0.8 mm 3 mps 662 mmHg 90%
    10:00 +24°C° 0.8 mm 3 mps 662 mmHg 87%
    11:00 +25°C° 0.8 mm 4 mps 662 mmHg 85%
    12:00 +25°C° 1.8 mm 4 mps 662 mmHg 85%
    13:00 +25°C° 1.8 mm 4 mps 661 mmHg 85%
    14:00 +26°C° 1.8 mm 4 mps 660 mmHg 85%
    15:00 +25°C° 0.7 mm 3 mps 660 mmHg 85%
    16:00 +25°C° 0.7 mm 3 mps 660 mmHg 86%
    17:00 +25°C° 0.7 mm 2 mps 660 mmHg 86%
    18:00 +24°C° 0.1 mm 2 mps 660 mmHg 87%
    19:00 +21°C° 0.1 mm 2 mps 660 mmHg 88%
    20:00 +21°C° 0.1 mm 1 mps 660 mmHg 89%
    21:00 +20°C° 0.1 mm 2 mps 660 mmHg 90%
    22:00 +20°C° 0.1 mm 2 mps 661 mmHg 91%
    23:00 +19°C° 0.1 mm 2 mps 661 mmHg 91%

    29 February, Saturday

    Time Temperature Precipitation Wind Pressure Humidity
    00:00 +20°C° 0.1 mm 1 mps 660 mmHg 93%
    01:00 +20°C° 0.1 mm 1 mps 660 mmHg 95%
    02:00 +20°C° 0.1 mm 1 mps 660 mmHg 97%
    03:00 +20°C° 0.4 mm 1 mps 660 mmHg 97%
    04:00 +20°C° 0.4 mm 1 mps 660 mmHg 97%
    05:00 +20°C° 0.4 mm 1 mps 660 mmHg 97%
    06:00 +20°C° 0.7 mm 1 mps 661 mmHg 97%
    07:00 +21°C° 0.7 mm 1 mps 662 mmHg 96%
    08:00 +21°C° 0.7 mm 1 mps 662 mmHg 96%
    09:00 +20°C° 1 mm 2 mps 662 mmHg 95%
    10:00 +20°C° 1 mm 2 mps 662 mmHg 95%
    11:00 +20°C° 1 mm 3 mps 663 mmHg 95%
    12:00 +20°C° 0.2 mm 3 mps 662 mmHg 93%
    13:00 +20°C° 0.2 mm 4 mps 662 mmHg 91%
    14:00 +19°C° 0.2 mm 4 mps 661 mmHg 90%
    15:00 +19°C° 0 mm 4 mps 661 mmHg 89%
    16:00 +19°C° 0 mm 3 mps 661 mmHg 88%
    17:00 +19°C° 0 mm 3 mps 660 mmHg 87%
    18:00 +19°C° 0 mm 3 mps 661 mmHg 88%
    19:00 +18°C° 0 mm 2 mps 661 mmHg 88%
    20:00 +18°C° 0 mm 2 mps 661 mmHg 89%
    21:00 +18°C° 0 mm 1 mps 661 mmHg 92%
    22:00 +18°C° 0 mm 1 mps 661 mmHg 94%
    23:00 +16°C° 0 mm 1 mps 661 mmHg 96%

    1 March, Sunday

    Time Temperature Precipitation Wind Pressure Humidity
    00:00 +16°C° 0 mm 1 mps 661 mmHg 96%
    01:00 +16°C° 0 mm 1 mps 661 mmHg 96%
    02:00 +16°C° 0 mm 1 mps 660 mmHg 97%
    03:00 +16°C° 0 mm 2 mps 661 mmHg 97%
    04:00 +16°C° 0 mm 2 mps 661 mmHg 97%
    05:00 +16°C° 0 mm 2 mps 661 mmHg 97%
    06:00 +18°C° 0 mm 3 mps 661 mmHg 94%
    07:00 +19°C° 0 mm 4 mps 662 mmHg 91%
    08:00 +20°C° 0 mm 4 mps 662 mmHg 88%
    09:00 +21°C° 0.1 mm 4 mps 663 mmHg 83%
    10:00 +22°C° 0.1 mm 4 mps 663 mmHg 78%
    11:00 +24°C° 0.1 mm 3 mps 663 mmHg 73%
    12:00 +25°C° 0.4 mm 3 mps 662 mmHg 75%
    13:00 +25°C° 0.4 mm 3 mps 662 mmHg 76%
    14:00 +25°C° 0.4 mm 3 mps 661 mmHg 78%
    15:00 +25°C° 0.1 mm 3 mps 660 mmHg 78%
    16:00 +25°C° 0.1 mm 3 mps 660 mmHg 78%
    17:00 +25°C° 0.1 mm 3 mps 659 mmHg 79%
    18:00 +22°C° 0 mm 3 mps 659 mmHg 85%
    19:00 +21°C° 0 mm 2 mps 660 mmHg 91%
    20:00 +19°C° 0 mm 2 mps 660 mmHg 97%
    21:00 +19°C° 0 mm 2 mps 660 mmHg 97%
    22:00 +18°C° 0 mm 2 mps 661 mmHg 98%
    23:00 +18°C° 0 mm 2 mps 661 mmHg 98%
    Show more